Estación Meteorológica de la Universidad de Murcia
Estación Meteorológica de la Universidad de Murcia
Universidad de Murcia
 

Velocidad y dirección del vientoVelocidad y dirección del viento

 

Velocidad: 40,32 km/h a las 14:35:00 del día 20/01/2019
Dirección del viento: 272,3 º W Rosa de los vientos a las 14:35:00 del día 20/01/2019

Nota:
N (entre 337,6º y 22,5º), NE (entre 22,6º y 67,5º), E (entre 67,6º y 112,5º), SE (entre 112,6º y 157,5º), S (entre 157,6º y 202,5º), SW (entre 202,6º y 247,5º), W (entre 247,5º y 292,5º) y NW (entre 292,6º y 337,5º)

||Velocidad últimos meses|| ----||Dirección del viento||


Velocidad

  • 1 - 40,32 km/h del día 20/01/2019
  • 2 - 18,72 km/h del día 19/01/2019
  • 3 - 16,56 km/h del día 18/01/2019
  • 4 - 28,08 km/h del día 17/01/2019
  • 5 - 16,92 km/h del día 16/01/2019
  • 6 - 24,12 km/h del día 15/01/2019
  • 7 - 35,28 km/h del día 14/01/2019
  • 8 - 20,52 km/h del día 13/01/2019
  • 9 - 14,76 km/h del día 12/01/2019
  • 10 - 17,64 km/h del día 11/01/2019
  • 11 - 37,8 km/h del día 10/01/2019
  • 12 - 39,24 km/h del día 09/01/2019
  • 13 - 26,28 km/h del día 08/01/2019
  • 14 - 20,16 km/h del día 07/01/2019
  • 15 - 22,68 km/h del día 06/01/2019
  • 16 - 17,64 km/h del día 05/01/2019
  • 17 - 15,12 km/h del día 04/01/2019
  • 18 - 22,32 km/h del día 03/01/2019
  • 19 - 24,84 km/h del día 02/01/2019
  • 20 - 15,84 km/h del día 01/01/2019
  • 21 - 19,08 km/h del día 31/12/2018
  • 22 - 25,2 km/h del día 30/12/2018
  • 23 - 19,44 km/h del día 29/12/2018
  • 24 - 16,92 km/h del día 28/12/2018
  • 25 - 16,92 km/h del día 27/12/2018
  • 26 - 22,68 km/h del día 26/12/2018
  • 27 - 18,36 km/h del día 25/12/2018
  • 28 - 14,4 km/h del día 24/12/2018
  • 29 - 16,56 km/h del día 23/12/2018
  • 30 - 17,64 km/h del día 22/12/2018
  • 31 - 16,56 km/h del día 21/12/2018
  • 32 - 36,72 km/h del día 20/12/2018
  • 33 - 34,2 km/h del día 19/12/2018
  • 34 - 20,16 km/h del día 18/12/2018
  • 35 - 32,4 km/h del día 17/12/2018
  • 36 - 32,04 km/h del día 16/12/2018
  • 37 - 23,04 km/h del día 15/12/2018
  • 38 - 72 km/h del día 14/12/2018
  • 39 - 62,28 km/h del día 13/12/2018
  • 40 - 30,24 km/h del día 12/12/2018
  • 41 - 16,2 km/h del día 11/12/2018
  • 42 - 19,08 km/h del día 10/12/2018
  • 43 - 29,88 km/h del día 09/12/2018
  • 44 - 34,56 km/h del día 08/12/2018
  • 45 - 20,88 km/h del día 07/12/2018
  • 46 - 25,92 km/h del día 06/12/2018
  • 47 - 16,92 km/h del día 05/12/2018
  • 48 - 16,92 km/h del día 04/12/2018
  • 49 - 24,12 km/h del día 03/12/2018
  • 50 - 21,24 km/h del día 02/12/2018
  • 51 - 25,2 km/h del día 01/12/2018
  • 52 - 37,08 km/h del día 30/11/2018
  • 53 - 18,72 km/h del día 29/11/2018
  • 54 - 23,4 km/h del día 28/11/2018
  • 55 - 38,16 km/h del día 27/11/2018
  • 56 - 45,36 km/h del día 26/11/2018
  • 57 - 18,72 km/h del día 25/11/2018
  • 58 - 23,76 km/h del día 24/11/2018
  • 59 - 18,72 km/h del día 23/11/2018
  • 60 - 12,24 km/h del día 22/11/2018

||Volver al inicio de la página||


Dirección del viento

  • 1 - 2403.75 º 2403,75 del día 31/12/2018
  • 2 - 2035.79 º 2035,79 del día 30/12/2018
  • 3 - 2175.99 º 2175,99 del día 30/11/2018
  • 4 - 1748.22 º 1748,22 del día 29/12/2018
  • 5 - 2206.47 º 2206,47 del día 29/11/2018
  • 6 - 2128.27 º 2128,27 del día 28/12/2018
  • 7 - 2256.96 º 2256,96 del día 28/11/2018
  • 8 - 2081.13 º 2081,13 del día 27/12/2018
  • 9 - 2447.53 º 2447,53 del día 27/11/2018
  • 10 - 2118.24 º 2118,24 del día 26/12/2018
  • 11 - 2474.99 º 2474,99 del día 26/11/2018
  • 12 - 2346.8 º 2346,8 del día 25/12/2018
  • 13 - 2373.7 º 2373,7 del día 25/11/2018
  • 14 - 2122.98 º 2122,98 del día 24/12/2018
  • 15 - 2416.29 º 2416,29 del día 24/11/2018
  • 16 - 2201.25 º 2201,25 del día 23/12/2018
  • 17 - 2395.72 º 2395,72 del día 23/11/2018
  • 18 - 2340.94 º 2340,94 del día 22/12/2018
  • 19 - 2271.78 º 2271,78 del día 22/11/2018
  • 20 - 2413.1 º 2413,1 del día 21/12/2018
  • 21 - 2644.53 º 2644,53 del día 21/11/2018
  • 22 - 2387.86 º 2387,86 del día 21/01/2019
  • 23 - 2437 º 2437 del día 20/12/2018
  • 24 - 2405.48 º 2405,48 del día 20/01/2019
  • 25 - 2324.52 º 2324,52 del día 19/12/2018
  • 26 - 2322.98 º 2322,98 del día 19/01/2019
  • 27 - 2470.89 º 2470,89 del día 18/12/2018
  • 28 - 2203.15 º 2203,15 del día 18/01/2019
  • 29 - 2040.2 º 2040,2 del día 17/12/2018
  • 30 - 2516.87 º 2516,87 del día 17/01/2019
  • 31 - 2387.21 º 2387,21 del día 16/12/2018
  • 32 - 2415.99 º 2415,99 del día 16/01/2019
  • 33 - 2330.05 º 2330,05 del día 15/12/2018
  • 34 - 1987.44 º 1987,44 del día 15/01/2019
  • 35 - 2507.88 º 2507,88 del día 14/12/2018
  • 36 - 2179.36 º 2179,36 del día 14/01/2019
  • 37 - 2209.73 º 2209,73 del día 13/12/2018
  • 38 - 2261.79 º 2261,79 del día 13/01/2019
  • 39 - 2482.04 º 2482,04 del día 12/12/2018
  • 40 - 2329.56 º 2329,56 del día 12/01/2019
  • 41 - 2496.66 º 2496,66 del día 11/12/2018
  • 42 - 2413.52 º 2413,52 del día 11/01/2019
  • 43 - 1734.01 º 1734,01 del día 10/12/2018
  • 44 - 2134.64 º 2134,64 del día 10/01/2019
  • 45 - 2375.26 º 2375,26 del día 09/12/2018
  • 46 - 2499.62 º 2499,62 del día 09/01/2019
  • 47 - 2176.35 º 2176,35 del día 08/12/2018
  • 48 - 2310.06 º 2310,06 del día 08/01/2019
  • 49 - 2347.5 º 2347,5 del día 07/12/2018
  • 50 - 2165.41 º 2165,41 del día 07/01/2019
  • 51 - 1983.51 º 1983,51 del día 06/12/2018
  • 52 - 2428.45 º 2428,45 del día 06/01/2019
  • 53 - 2323.35 º 2323,35 del día 05/12/2018
  • 54 - 2315.23 º 2315,23 del día 05/01/2019
  • 55 - 2024.41 º 2024,41 del día 04/12/2018
  • 56 - 2273.33 º 2273,33 del día 04/01/2019
  • 57 - 2269.6 º 2269,6 del día 03/12/2018
  • 58 - 2106.52 º 2106,52 del día 03/01/2019
  • 59 - 2337.16 º 2337,16 del día 02/12/2018
  • 60 - 2124.93 º 2124,93 del día 02/01/2019
  • 61 - 2470.34 º 2470,34 del día 01/12/2018
  • 62 - 2447.81 º 2447,81 del día 01/01/2019

|| Temperatura Ambiente|| Humedad relativa|| Precipitación|| Radiación Solar Global y PAR|| Temperatura y humedad del suelo|| Presión atmosférica|| Más información|| Volver a la página principal|| Volver al inicio de la página||


Estación Meteorológica de la Universidad de Murcia
http://estacion.um.es/
Informacion actualizada a: 21/01/2019 a las 20:38:00